Inquirer Daily News

Weather

Get conditions and forecasts for any City, State, ZIP code or Country:  
Trenton, NJ
on Thursday, November 22, 2012

Thursday
Previous Day Next Day
Daily Summary
 ActualAverageRecord
Temperature
Mean Temperature °F 44°F  
Max Temperature 57°F 52°F 72°F (1931)
Min Temperature 31°F 36°F 15°F (1880)
Degree Days
Heating Degree Days 21 21  
Month to date heating degree days 478 396  
Since 1 July heating degree days 785 793  
Cooling Degree Days 0 0  
Month to date cooling degree days 0 0  
Year to date cooling degree days 1234 965  
Moisture
Dew Point 33°F   
Average Humidity 65    
Maximum Humidity 82    
Minimum Humidity 47    
Precipitation
Precipitation 0.00 in 0.11 in 1.73 in (2011)
Month to date precipitation 0.58 2.31  
Year to date precipitation 32.63 41.74  
Wind
Wind Speed 5 mph   
Max Wind Speed 9 mph   
Max Gust Speed 12 mph   
Visibility 10 miles   
Events     

Key: T is trace of precipitation, MM is missing value
Source: NWS Daily Summary
Time(EST)TemperatureDew PointHumidity Pressure Visibility Wind DirectionWind SpeedGust SpeedPrecipitationEvents Conditions
12:53 AM 34.0°F 25.0°F 70% 30.20 in 10.0 miles North 4.6 mph - N/A   Clear
1:53 AM 36.0°F 25.0°F 64% 30.21 in 10.0 miles North 6.9 mph - N/A   Clear
2:53 AM 36.0°F 25.0°F 64% 30.22 in 10.0 miles North 6.9 mph - N/A   Clear
3:53 AM 36.0°F 25.0°F 64% 30.20 in 10.0 miles North 6.9 mph - N/A   Clear
4:53 AM 35.1°F 26.1°F 70% 30.22 in 10.0 miles NNE 8.1 mph - N/A   Clear
5:53 AM 36.0°F 27.0°F 70% 30.22 in 10.0 miles North 5.8 mph - N/A   Clear
6:53 AM 34.0°F 28.0°F 79% 30.22 in 10.0 miles North 4.6 mph - N/A   Clear
7:53 AM 37.9°F 30.0°F 73% 30.24 in 10.0 miles North 5.8 mph - N/A   Clear
8:53 AM 43.0°F 34.0°F 71% 30.26 in 10.0 miles NNE 4.6 mph - N/A   Clear
9:53 AM 48.9°F 37.9°F 66% 30.25 in 10.0 miles NE 5.8 mph - N/A   Clear
10:53 AM 52.0°F 39.0°F 61% 30.25 in 10.0 miles ENE 3.5 mph - N/A   Clear
11:53 AM 53.1°F 39.0°F 59% 30.22 in 10.0 miles SE 5.8 mph - N/A   Clear
12:53 PM 55.0°F 39.0°F 55% 30.20 in 10.0 miles ENE 5.8 mph - N/A   Clear
1:53 PM 55.0°F 39.0°F 55% 30.18 in 10.0 miles Variable 3.5 mph - N/A   Clear
2:53 PM 57.0°F 37.0°F 47% 30.17 in 10.0 miles Calm Calm - N/A   Clear
3:53 PM 55.9°F 37.9°F 51% 30.17 in 10.0 miles Calm Calm - N/A   Clear
4:53 PM 50.0°F 37.0°F 61% 30.17 in 10.0 miles Calm Calm - N/A   Clear
5:53 PM 46.9°F 37.0°F 68% 30.17 in 10.0 miles Calm Calm - N/A   Clear
6:53 PM 46.0°F 37.0°F 71% 30.17 in 10.0 miles Calm Calm - N/A   Clear
7:53 PM 42.1°F 35.1°F 76% 30.16 in 10.0 miles Calm Calm - N/A   Clear
9:53 PM 37.9°F 33.1°F 83% 30.15 in 9.0 miles Calm Calm - N/A   Clear
10:53 PM 37.0°F 33.1°F 86% 30.14 in 8.0 miles Calm Calm - N/A   Clear
11:53 PM 36.0°F 34.0°F 93% 30.13 in 6.0 miles North 3.5 mph - N/A   Clear
Astronomy
Sunrise:06:53 AM (EST) Moon Rise:01:22 PM (EST)11/22
Sunset:04:37 PM (EST) Moon Set:01:10 AM (EST)11/22
Moon Phase
Nov. 22 Nov. 28 Dec. 06 Dec. 13 Dec. 20

Copyright © 2014 The Weather Underground, Inc.